EW2349 Weather Reports


Display with metric or nautical units.
time (UTC)temp
F
wind
direction
speed
MPH
gust
MPH
rain 1hr
in
rain 24hr
in
rain mn
in
humidity
%
barometer
mb
20260504034529 58 346 10.0 20.0 0.00 0.00 0.00 37 1002.7
20260504033028 58 15 17.0 25.0 0.00 0.00 0.00 36 1002.4
20260504031527 59 360 15.0 24.0 0.00 0.00 0.00 36 1002.2
20260504030027 59 360 7.0 15.0 0.00 0.00 0.00 37 1001.9
20260504024526 61 347 10.0 21.0 0.00 0.00 0.00 35 1001.5
20260504023025 61 360 13.0 24.0 0.00 0.00 0.00 35 1001.1
20260504021523 63 360 21.0 29.0 0.00 0.00 0.00 34 1000.7
20260504020035 65 14 19.0 35.0 0.00 0.00 0.00 33 1000.3
20260504014523 68 360 16.0 25.0 0.00 0.00 0.00 29 999.5
20260504013031 69 360 13.0 25.0 0.00 0.00 0.00 29 999.4
20260504011522 70 360 17.0 25.0 0.00 0.00 0.00 29 999.4
20260504010020 71 360 16.0 28.0 0.00 0.00 0.00 29 999.3
20260504004519 71 360 14.0 26.0 0.00 0.00 0.00 29 999.5
20260504003018 72 360 19.0 29.0 0.00 0.00 0.00 29 999.6
20260504001524 72 360 18.0 31.0 0.00 0.00 0.00 29 999.7
20260504000016 73 360 16.0 28.0 0.00 0.00 0.00 28 999.6
20260503234516 74 360 18.0 33.0 0.00 0.00 0.00 26 999.6
20260503233019 75 360 22.0 31.0 0.00 0.00 0.00 20 999.6
20260503231514 75 360 16.0 28.0 0.00 0.00 0.00 21 999.7
20260503230031 76 360 15.0 30.0 0.00 0.00 0.00 20 999.6
20260503224620 76 360 19.0 33.0 0.00 0.00 0.00 23 999.7
20260503223011 77 360 21.0 31.0 0.00 0.00 0.00 21 999.9
20260503221508 77 360 19.0 32.0 0.00 0.00 0.00 19 1000.2
20260503220006 77 230 18.0 29.0 0.00 0.00 0.00 20 1000.5
20260503214508 77 360 18.0 27.0 0.00 0.00 0.00 21 1000.5
20260503213103 76 231 17.0 31.0 0.00 0.00 0.00 27 1001.2
20260503211559 75 360 14.0 27.0 0.00 0.00 0.00 28 1001.7
20260503210053 75 227 17.0 0.0 0.00 0.00 0.00 27 1002.3
20260503204611 75 360 14.0 20.0 0.00 0.00 0.00 25 1002.8
20260503203047 75 360 12.0 25.0 0.00 0.00 0.00 23 1003.3
20260503201545 74 360 16.0 23.0 0.00 0.00 0.00 22 1003.4
20260503200041 72 360 15.0 20.0 0.00 0.00 0.00 26 1003.7
20260503194542 71 360 14.0 22.0 0.00 0.00 0.00 26 1004.0
20260503193044 71 360 16.0 22.0 0.00 0.00 0.00 26 1004.5
20260503191600 72 232 11.0 26.0 0.00 0.00 0.00 28 1004.8
20260503190034 72 227 15.0 22.0 0.00 0.00 0.00 28 1005.1
20260503184527 73 360 12.0 24.0 0.00 0.00 0.00 29 1005.6
20260503183024 71 360 15.0 24.0 0.00 0.00 0.00 29 1006.1
20260503181521 71 360 13.0 25.0 0.00 0.00 0.00 31 1006.3
20260503180024 71 360 14.0 20.0 0.00 0.00 0.00 29 1006.7
20260503174515 71 360 11.0 22.0 0.00 0.00 0.00 30 1007.0
20260503173011 70 360 14.0 24.0 0.00 0.00 0.00 30 1007.4
20260503171508 69 360 14.0 24.0 0.00 0.00 0.00 30 1007.7
20260503081513 34 360 0.0 0.0 0.00 0.00 0.00 82 1012.7
20260503071506 34 360 0.0 0.0 0.00 0.00 0.00 80 1012.8
20260503054605 38 360 0.0 0.0 0.00 0.00 0.00 71 1012.7
20260503053043 39 360 0.0 0.0 0.00 0.00 0.00 69 1012.8
20260503051539 40 360 0.0 0.0 0.00 0.00 0.00 69 1012.8
20260503050038 40 360 0.0 0.0 0.00 0.00 0.00 69 1012.9
20260503044542 40 360 0.0 0.0 0.00 0.00 0.00 68 1012.9
20260503043042 41 360 0.0 3.0 0.00 0.00 0.00 67 1012.9
20260503041531 41 360 1.0 3.0 0.00 0.00 0.00 66 1013.1
20260503040030 42 360 0.0 3.0 0.00 0.00 0.00 64 1013.0